Location: Pace/Milton
(30.6162°N, 87.1503°W)
Time: 20:52:55
(UTC-06:00)

Tiangong - Visible Passes

Search period start: 05 December 2021 00:00
Search period end: 15 December 2021 00:00
Orbit: 380 x 384 km, 41.5° (Epoch: 05 December)

Date Brightness Start Highest point End Pass type
(mag) Time Alt. Az. Time Alt. Az. Time Alt. Az.
05 Dec 3.2 17:22:33 10° S 17:24:35 16° SE 17:26:37 10° E visible
05 Dec 4.0 18:58:03 10° WSW 18:58:58 17° WSW 18:58:58 17° WSW visible
06 Dec 1.0 17:57:31 10° SW 18:00:39 73° SSE 18:01:35 41° ENE visible
07 Dec 2.9 18:34:10 10° W 18:36:17 27° NW 18:36:17 27° NW visible
08 Dec 1.5 17:33:17 10° WSW 17:36:24 54° NNW 17:38:44 16° NE visible
09 Dec 3.0 18:10:24 10° WNW 18:12:50 20° NNW 18:13:17 19° N visible
10 Dec 2.4 17:09:14 10° W 17:12:06 31° NNW 17:14:58 10° NE visible
11 Dec 3.4 17:46:40 10° NW 17:48:37 15° NNW 17:50:02 12° NNE visible
12 Dec 3.9 18:24:09 10° NNW 18:24:26 11° NNW 18:24:26 11° NNW visible
13 Dec 3.5 17:22:52 10° NW 17:24:20 13° N 17:25:49 10° NNE visible
14 Dec 3.5 17:59:44 10° NNW 18:01:00 12° N 18:01:03 12° N visible
